Temp
64 64 61 60 48 47 43 47 52 57 59 67 71 68 65 65 63 56 68 71 71 71 73 74 74 75 75 75 75 75 75 75 76 76 75 76 75 76 76 75 75 75 75 75 75 74 74 73 73
60 66 60 52 43 39 43 50 53 60 64 68 69 66 63 60 65 64 66 71 72 72 73 73 73 76 75 74 74 74 75 75 76 76 76 76 75 76 75 76 75 75 75 75 75 74 73 73 73
63 64 52 47 42 41 43 51 56 63 65 66 65 69 65 63 66 67 71 72 73 72 73 73 73 74 74 74 74 74 75 75 76 76 76 75 74 75 75 75 75 75 75 75 75 74 73 73 73
58 55 52 46 42 47 51 51 58 62 63 67 66 62 64 70 69 71 72 73 71 71 73 71 73 74 74 74 74 74 75 75 76 75 76 76 74 75 74 75 74 75 75 75 75 74 73 72 72
53 49 42 42 44 49 51 59 61 59 59 64 67 62 60 69 71 71 71 72 70 71 71 71 72 73 73 73 74 74 75 76 76 76 75 74 75 75 75 74 74 74 74 74 74 73 72 72 72
46 46 42 37 43 49 54 58 59 58 61 65 64 63 62 68 69 69 71 70 71 70 70 71 69 71 72 73 73 74 75 76 75 75 74 73 74 74 74 74 74 73 73 73 73 72 72 71 71
41 38 38 39 39 43 51 59 54 56 59 63 69 65 61 63 69 70 70 71 71 70 70 70 70 69 68 70 70 72 73 74 74 73 72 72 72 73 73 72 73 73 73 73 72 72 71 71 71
43 39 34 37 40 41 53 54 57 54 54 64 66 61 54 63 66 68 70 70 69 69 69 69 69 69 69 69 66 68 71 71 71 71 69 68 70 69 69 68 70 72 72 72 71 70 70 70 70
48 33 30 36 39 43 53 49 55 57 54 57 63 57 62 70 64 65 64 66 67 68 69 69 68 68 68 67 66 66 69 69 67 67 65 66 69 67 65 64 68 70 70 70 70 70 69 67 67
40 31 36 44 44 43 48 48 49 50 51 53 57 60 62 64 64 63 63 64 65 66 67 69 68 67 66 69 65 64 67 70 71 71 68 70 67 63 65 62 64 67 67 69 69 69 66 63 62
41 35 42 45 48 49 47 47 49 47 45 51 51 55 59 60 60 63 63 65 66 67 67 68 68 67 66 67 65 65 63 63 65 68 68 68 65 60 60 60 61 62 61 63 64 63 61 61 60
35 43 44 46 48 46 44 48 46 48 49 55 55 57 58 58 60 61 62 63 64 66 67 68 69 67 66 66 65 64 63 62 62 65 64 61 60 58 58 59 60 60 61 61 60 59 60 60 61
37 41 44 45 46 46 48 44 44 46 50 54 57 59 59 57 61 63 64 64 64 65 67 67 68 68 67 65 65 63 64 63 63 63 64 62 60 59 60 59 59 59 61 60 58 58 58 58 58
41 41 41 44 44 44 43 44 43 48 50 51 56 57 59 60 59 62 61 61 64 65 66 67 67 68 68 66 65 64 64 63 63 64 63 62 62 61 61 59 60 60 62 60 58 58 57 56 56
41 34 38 40 42 41 44 38 40 47 51 50 49 56 59 61 60 61 62 62 64 65 66 67 67 68 67 66 65 65 65 64 63 64 65 64 63 62 61 61 61 61 62 63 61 56 55 54 55
34 33 26 39 40 42 40 30 42 48 47 47 49 50 54 60 61 63 62 62 64 65 65 67 68 67 67 67 66 66 65 65 64 65 67 67 66 64 62 62 61 63 63 63 60 55 53 52 52
32 24 26 31 41 40 38 32 42 47 47 46 48 49 54 58 58 62 63 62 63 64 65 65 68 66 67 67 67 66 66 67 66 66 66 67 65 64 62 61 62 64 63 61 60 57 54 50 49
24 25 28 27 36 39 35 35 41 45 45 45 44 45 50 55 61 63 62 62 62 64 66 67 66 65 66 66 66 65 65 66 68 67 67 68 66 64 61 59 62 63 61 60 59 57 54 50 49
32 29 28 32 39 35 34 34 39 43 43 43 45 42 45 51 62 63 63 62 61 63 66 66 65 65 65 64 63 62 62 64 64 65 65 66 65 63 60 58 60 62 60 59 58 53 53 47 46
30 27 27 32 37 35 33 32 38 42 43 45 46 46 45 49 52 62 61 61 61 62 63 65 65 65 65 65 65 65 65 63 66 63 62 65 62 61 59 59 58 60 57 57 56 52 50 49 49
28 27 27 28 33 34 30 27 33 40 43 46 47 49 47 47 51 54 60 60 61 61 61 65 65 64 66 66 66 63 63 61 61 62 61 60 62 60 58 56 57 58 59 56 54 53 52 47 49
23 35 32 29 27 20 34 17 30 35 37 42 45 47 47 47 51 54 59 57 57 60 61 63 64 65 66 66 64 63 62 60 63 64 59 57 60 60 57 58 58 58 56 55 53 54 54 51 48
24 34 30 28 26 25 26 21 28 35 33 37 42 46 47 47 49 54 56 57 58 60 60 62 64 65 64 63 64 62 62 63 58 56 56 57 54 56 56 55 55 55 54 54 53 51 51 52 48
35 30 29 29 26 17 27 23 25 30 34 38 42 45 48 46 49 52 57 58 59 60 60 60 62 64 64 64 63 61 61 62 58 57 57 56 54 52 52 52 53 54 54 52 52 51 52 51 47
30 25 13 9 9 9 29 24 27 35 40 41 42 44 47 47 48 49 53 55 57 60 60 61 61 61 63 62 63 63 63 62 60 58 57 53 51 49 51 51 51 51 52 52 51 49 50 49 50
27 26 17 11 13 18 30 19 30 36 39 43 46 47 47 46 49 50 52 54 56 58 59 60 61 61 61 62 63 63 63 62 60 59 58 56 55 54 53 52 51 51 50 50 49 48 48 46 46
28 22 31 23 22 19 24 31 38 36 34 37 40 45 43 45 46 49 51 53 56 57 58 60 60 61 61 62 62 61 61 61 59 58 59 58 57 54 50 51 48 47 47 48 48 46 46 44 43
31 34 20 24 14 12 22 23 22 26 28 37 38 40 42 45 46 49 50 52 56 57 58 60 60 60 60 60 62 61 61 60 59 57 56 56 53 48 47 45 45 46 46 46 46 43 43 41 39
25 22 24 22 20 17 15 20 27 24 28 38 40 41 40 44 46 46 49 51 53 52 52 53 53 52 53 56 56 54 51 52 48 46 45 45 42 42 40 40 41 42 41 41 41 40 40 38 37
30 22 20 14 17 21 22 21 28 24 33 39 39 42 43 43 44 44 44 44 44 43 44 44 45 43 44 45 44 42 42 41 40 39 39 40 39 39 39 39 39 39 39 39 38 37 37 37 35
MSLP
1013.51 1013.26 1013.01 1013.10 1013.67 1013.08 1011.88 1010.79 1009.69 1008.84 1007.94 1006.34 1005.71 1005.55 1005.19 1005.61 1006.14 1007.12 1006.88 1007.49 1007.66 1008.67 1009.38 1009.83 1010.12 1010.72 1011.45 1012.03 1012.35 1012.91 1013.32 1013.39 1013.60 1014.02 1014.34 1014.63 1015.18 1015.67 1016.03 1016.26 1016.57 1016.65 1016.77 1016.89 1016.95 1017.09 1017.21 1017.36 1017.45
1013.68 1013.26 1013.32 1013.53 1013.63 1012.61 1010.84 1010.27 1009.06 1007.87 1006.98 1006.13 1005.80 1005.65 1005.33 1005.71 1005.80 1006.45 1007.30 1007.44 1007.59 1008.31 1009.19 1009.77 1010.09 1010.51 1011.26 1011.99 1012.49 1012.95 1013.26 1013.61 1013.71 1014.06 1014.58 1014.70 1015.18 1015.64 1016.10 1016.40 1016.67 1016.73 1016.95 1017.01 1017.08 1017.21 1017.39 1017.52 1017.65
1013.43 1013.55 1013.93 1013.73 1012.76 1010.74 1010.07 1009.16 1008.48 1007.20 1006.71 1006.56 1005.96 1005.23 1005.32 1005.32 1005.55 1005.81 1005.95 1007.16 1007.77 1008.34 1009.03 1009.67 1010.02 1010.53 1011.21 1011.82 1012.53 1013.02 1013.28 1013.66 1014.00 1014.20 1014.77 1014.95 1015.30 1015.69 1016.22 1016.48 1016.75 1016.92 1016.99 1017.08 1017.17 1017.35 1017.52 1017.63 1017.79
1013.65 1014.04 1014.17 1013.15 1010.88 1010.13 1009.51 1008.79 1008.10 1007.23 1006.51 1006.14 1005.84 1005.56 1005.37 1004.80 1004.81 1005.07 1005.87 1006.88 1007.69 1008.27 1008.93 1009.64 1010.01 1010.32 1011.14 1011.76 1012.34 1012.91 1013.37 1013.57 1013.98 1014.41 1014.78 1015.13 1015.41 1015.75 1016.25 1016.55 1016.81 1016.95 1017.11 1017.19 1017.29 1017.46 1017.63 1017.80 1017.89
1014.06 1014.53 1014.26 1012.45 1009.92 1009.93 1009.34 1008.59 1008.16 1007.31 1007.01 1006.21 1005.91 1005.44 1005.67 1005.10 1004.95 1005.06 1005.88 1006.57 1007.31 1008.29 1009.00 1009.55 1009.91 1010.24 1010.96 1011.68 1012.17 1012.74 1013.21 1013.50 1014.01 1014.42 1014.82 1015.40 1015.60 1015.80 1016.26 1016.61 1016.89 1017.09 1017.21 1017.30 1017.40 1017.55 1017.72 1017.89 1018.02
1014.81 1014.76 1014.16 1012.02 1010.46 1009.81 1009.10 1008.60 1008.19 1008.07 1007.30 1006.58 1006.21 1005.86 1005.95 1005.67 1005.77 1005.57 1005.71 1006.31 1007.10 1007.99 1009.04 1009.51 1009.91 1010.36 1010.91 1011.55 1012.11 1012.67 1013.05 1013.36 1013.87 1014.39 1014.92 1015.49 1015.90 1015.93 1016.35 1016.72 1016.97 1017.21 1017.33 1017.39 1017.47 1017.60 1017.77 1017.98 1018.11
1015.27 1015.24 1013.05 1011.95 1011.35 1010.29 1009.25 1008.81 1008.49 1007.95 1007.27 1006.58 1006.39 1005.89 1006.27 1006.04 1005.89 1006.09 1006.28 1006.46 1007.26 1008.19 1009.03 1009.59 1010.04 1010.42 1010.92 1011.51 1011.91 1012.40 1012.96 1013.41 1013.78 1014.45 1015.05 1015.47 1015.99 1016.21 1016.43 1016.88 1017.12 1017.31 1017.43 1017.52 1017.60 1017.67 1017.79 1018.01 1018.21
1015.37 1015.25 1013.51 1012.24 1011.94 1010.96 1010.02 1009.24 1008.64 1008.34 1007.91 1007.15 1006.28 1006.02 1006.53 1005.60 1006.43 1006.56 1006.96 1007.10 1007.37 1008.28 1009.12 1009.77 1010.08 1010.52 1010.95 1011.54 1011.81 1012.30 1013.01 1013.37 1013.83 1014.43 1015.06 1015.53 1015.96 1016.34 1016.76 1016.99 1017.19 1017.31 1017.49 1017.62 1017.68 1017.81 1017.86 1018.07 1018.27
1014.99 1015.31 1013.97 1013.17 1012.15 1011.62 1010.42 1010.12 1009.10 1008.74 1008.57 1008.11 1007.31 1007.47 1006.98 1004.53 1006.59 1007.07 1007.20 1007.58 1007.77 1008.24 1008.95 1009.76 1010.23 1010.60 1010.94 1011.51 1011.99 1012.27 1012.92 1013.49 1013.93 1014.47 1015.25 1015.59 1015.91 1016.31 1016.92 1017.18 1017.18 1017.30 1017.56 1017.68 1017.79 1017.87 1017.99 1018.31 1018.50
1015.42 1015.05 1014.16 1013.39 1012.50 1012.03 1011.52 1010.84 1010.30 1009.65 1009.15 1008.61 1007.67 1007.38 1007.16 1006.87 1006.53 1006.91 1007.01 1007.15 1007.45 1007.57 1008.29 1009.23 1010.01 1010.75 1011.02 1011.38 1012.08 1012.56 1012.82 1013.40 1013.85 1014.30 1015.07 1015.63 1015.99 1016.51 1016.82 1017.17 1017.27 1017.41 1017.67 1017.76 1017.81 1017.88 1018.21 1018.54 1018.74
1015.34 1014.88 1014.37 1013.53 1012.72 1012.19 1011.68 1011.03 1010.53 1010.06 1009.35 1008.93 1008.83 1008.11 1007.90 1008.04 1007.84 1006.21 1006.47 1006.67 1006.61 1007.17 1007.73 1008.67 1009.54 1010.30 1011.20 1011.43 1011.96 1012.64 1012.96 1013.49 1013.89 1014.26 1014.78 1015.58 1016.07 1016.73 1016.92 1017.13 1017.30 1017.54 1017.76 1017.84 1017.99 1018.10 1018.30 1018.61 1018.84
1015.98 1014.88 1014.31 1013.52 1012.88 1012.58 1012.13 1011.52 1010.47 1010.05 1009.43 1009.34 1009.14 1008.58 1008.17 1007.85 1007.53 1007.47 1005.91 1006.90 1007.07 1007.47 1007.70 1008.18 1009.06 1009.96 1010.86 1011.45 1011.91 1012.40 1012.95 1013.37 1013.88 1014.21 1014.71 1015.43 1016.04 1016.70 1017.06 1017.20 1017.29 1017.48 1017.63 1017.90 1018.04 1018.21 1018.25 1018.57 1018.71
1015.63 1014.81 1014.09 1013.55 1012.95 1012.35 1011.91 1011.53 1011.07 1009.52 1009.65 1009.15 1008.93 1008.67 1008.15 1008.00 1007.56 1007.14 1007.17 1006.51 1006.50 1007.10 1007.60 1007.90 1008.71 1009.47 1010.38 1011.22 1011.77 1012.33 1012.82 1013.21 1013.59 1014.14 1014.69 1015.03 1015.73 1016.29 1016.58 1016.89 1017.22 1017.43 1017.58 1017.79 1018.13 1018.27 1018.37 1018.61 1018.83
1015.31 1014.97 1014.18 1013.32 1012.75 1012.30 1011.79 1011.09 1010.77 1009.45 1009.39 1009.04 1008.58 1008.32 1007.70 1007.23 1007.15 1006.65 1006.67 1006.50 1006.29 1006.47 1006.85 1007.64 1008.10 1009.10 1010.07 1010.87 1011.54 1012.05 1012.56 1013.00 1013.47 1013.95 1014.38 1014.83 1015.22 1015.77 1016.18 1016.53 1016.90 1017.20 1017.34 1017.64 1018.08 1018.24 1018.64 1018.84 1019.03
1015.62 1015.27 1014.15 1012.80 1012.30 1012.09 1011.47 1010.86 1009.86 1009.68 1008.73 1008.39 1008.24 1007.61 1007.01 1006.47 1006.62 1006.67 1006.20 1006.32 1005.92 1006.17 1006.44 1007.17 1007.70 1008.51 1009.55 1010.39 1011.21 1011.72 1012.13 1012.72 1013.18 1013.61 1013.96 1014.54 1014.92 1015.25 1015.66 1016.03 1016.53 1016.72 1016.99 1017.42 1017.94 1018.34 1018.77 1019.20 1019.40
1015.80 1015.41 1014.40 1011.57 1011.87 1011.33 1011.60 1010.19 1009.82 1009.37 1008.71 1007.95 1007.73 1007.58 1007.12 1006.42 1005.77 1005.77 1005.81 1006.00 1006.08 1006.24 1006.68 1007.12 1007.46 1008.17 1008.92 1009.90 1010.60 1011.28 1011.81 1012.28 1012.74 1013.16 1013.49 1013.90 1014.46 1014.89 1015.27 1015.57 1015.99 1016.24 1016.60 1017.12 1017.64 1018.42 1019.13 1019.45 1019.73
1015.56 1014.89 1014.02 1012.36 1011.87 1011.56 1011.34 1010.18 1009.58 1008.87 1008.34 1007.72 1007.27 1007.01 1006.55 1005.71 1005.36 1005.25 1005.23 1005.50 1005.71 1005.99 1006.43 1007.06 1007.48 1007.75 1008.56 1009.35 1010.20 1010.76 1011.24 1011.80 1012.18 1012.70 1013.11 1013.44 1013.89 1014.48 1014.77 1015.24 1015.55 1015.63 1016.19 1016.85 1017.35 1018.29 1018.80 1019.60 1020.02
1014.87 1014.47 1013.70 1012.55 1011.72 1011.74 1010.74 1010.10 1009.56 1008.72 1008.17 1007.56 1007.18 1006.85 1006.31 1005.42 1004.33 1004.86 1004.95 1005.23 1005.57 1005.73 1006.13 1006.39 1006.99 1007.62 1008.30 1009.15 1009.95 1010.54 1010.99 1011.33 1011.61 1012.12 1012.52 1012.99 1013.31 1013.82 1014.25 1014.92 1015.26 1015.50 1016.11 1016.73 1017.10 1017.95 1018.81 1019.29 1019.86
1014.40 1013.87 1013.01 1012.25 1011.36 1011.61 1010.36 1009.56 1008.73 1008.22 1007.72 1007.27 1006.65 1006.62 1006.11 1005.67 1004.82 1004.93 1004.97 1004.71 1005.10 1005.47 1005.62 1006.07 1006.57 1007.25 1007.86 1008.67 1009.45 1010.11 1010.50 1011.05 1011.43 1011.86 1012.11 1012.59 1013.02 1013.37 1013.98 1014.58 1015.06 1015.18 1015.93 1016.32 1016.81 1017.77 1018.73 1019.78 1020.07
1014.10 1013.38 1012.38 1011.76 1010.98 1011.05 1010.29 1009.15 1008.37 1007.67 1006.99 1006.70 1006.02 1005.79 1005.78 1005.35 1004.69 1004.06 1004.21 1004.39 1004.65 1005.12 1005.25 1005.78 1006.29 1006.90 1007.55 1008.26 1008.92 1009.66 1010.18 1010.62 1010.87 1011.64 1011.94 1012.19 1012.76 1013.17 1013.76 1014.24 1014.72 1015.01 1015.63 1016.28 1016.75 1017.19 1018.60 1019.50 1019.75
1013.45 1012.79 1012.00 1011.40 1010.77 1010.68 1010.52 1008.11 1007.63 1006.59 1006.08 1005.76 1005.15 1004.66 1004.95 1005.16 1004.95 1004.98 1004.33 1004.04 1004.09 1004.68 1004.68 1004.90 1005.75 1006.48 1007.07 1007.88 1008.65 1009.40 1010.12 1010.56 1010.98 1011.49 1011.78 1012.22 1012.45 1012.91 1013.30 1013.86 1014.41 1014.84 1015.15 1015.82 1016.45 1016.89 1017.30 1018.57 1019.19
1012.60 1011.56 1011.48 1011.21 1011.27 1010.16 1009.52 1007.49 1006.34 1005.42 1005.15 1004.91 1004.57 1004.14 1004.19 1004.36 1004.24 1003.97 1003.91 1003.87 1003.89 1004.18 1004.67 1005.33 1005.53 1006.17 1006.81 1007.55 1008.32 1008.94 1009.30 1010.00 1010.30 1010.86 1011.58 1012.09 1012.21 1012.50 1013.08 1013.36 1013.85 1014.26 1014.95 1015.62 1015.95 1016.38 1016.70 1017.33 1018.25
1012.15 1011.77 1011.49 1011.07 1010.52 1010.30 1009.39 1008.83 1004.27 1004.46 1004.26 1003.65 1003.45 1003.07 1003.31 1003.57 1003.43 1003.43 1003.17 1003.17 1003.92 1004.00 1004.14 1004.97 1005.84 1006.03 1006.74 1007.31 1007.79 1008.64 1009.08 1009.59 1010.00 1010.76 1011.39 1011.74 1012.04 1012.31 1012.70 1013.13 1013.55 1013.96 1014.61 1015.10 1015.47 1016.08 1016.41 1016.75 1017.32
1012.00 1011.56 1010.66 1010.27 1009.98 1009.13 1007.69 1007.70 1003.29 1003.66 1002.42 1002.71 1002.65 1002.46 1002.42 1003.10 1003.19 1003.15 1003.02 1003.65 1003.62 1003.66 1004.36 1005.08 1005.85 1005.78 1006.27 1007.04 1007.56 1008.29 1008.44 1009.11 1010.00 1010.52 1011.15 1011.64 1012.11 1012.32 1012.70 1013.03 1013.32 1013.68 1013.98 1014.68 1015.12 1015.53 1015.98 1016.31 1016.62
1011.74 1011.75 1011.02 1010.43 1009.87 1008.64 1006.86 1006.53 1003.79 1002.90 1002.32 1001.70 1001.32 1001.40 1001.58 1002.35 1002.89 1002.91 1002.94 1003.11 1002.61 1003.15 1003.99 1004.32 1004.98 1005.52 1006.11 1006.76 1007.24 1007.73 1008.33 1008.84 1009.37 1009.94 1010.64 1011.37 1011.88 1012.39 1012.44 1012.67 1013.10 1013.55 1013.79 1014.20 1014.61 1015.07 1015.45 1015.80 1016.16
1012.02 1011.89 1011.41 1010.48 1009.29 1007.87 1006.60 1005.30 1003.50 1003.07 1002.52 1001.43 1000.71 1000.63 1001.13 1001.80 1002.01 1002.20 1002.10 1002.37 1002.89 1003.04 1003.50 1004.02 1004.80 1005.24 1005.78 1006.29 1006.86 1007.46 1007.99 1008.51 1009.12 1009.58 1009.95 1010.51 1010.90 1011.33 1011.88 1012.34 1012.73 1013.23 1013.57 1014.06 1014.38 1014.70 1015.10 1015.47 1015.99
1012.19 1011.90 1010.84 1009.57 1008.39 1007.57 1005.72 1004.40 1002.95 1003.40 1002.83 1001.29 1000.42 1000.42 1000.89 1001.34 1001.86 1001.92 1002.03 1002.42 1002.89 1003.20 1003.26 1003.63 1004.59 1004.80 1005.43 1005.97 1006.77 1007.23 1007.78 1008.38 1008.84 1009.20 1009.66 1010.12 1010.41 1010.71 1011.47 1012.04 1012.42 1012.95 1013.48 1013.94 1014.43 1014.88 1015.39 1015.54 1016.17
1013.10 1012.79 1011.07 1010.02 1008.85 1007.53 1006.12 1005.76 1005.79 1004.49 1002.06 1000.25 999.94 1000.33 1000.71 1001.19 1001.80 1001.93 1002.20 1002.54 1002.94 1003.39 1003.57 1003.83 1004.40 1004.81 1005.19 1006.08 1006.73 1007.30 1007.63 1008.19 1008.87 1009.37 1009.69 1009.84 1010.09 1010.67 1011.35 1011.91 1012.47 1013.18 1013.89 1014.63 1015.02 1015.60 1016.22 1016.48 1017.02
1013.85 1013.68 1013.12 1012.30 1010.46 1008.27 1007.60 1007.34 1007.92 1007.16 1004.48 1002.10 1000.78 1000.82 1001.20 1001.45 1001.82 1002.06 1002.48 1003.17 1003.79 1004.52 1005.05 1005.45 1005.77 1006.28 1006.93 1007.27 1007.96 1008.38 1009.15 1009.47 1010.19 1010.91 1011.41 1011.64 1012.02 1012.00 1012.64 1012.93 1013.57 1014.45 1015.09 1015.76 1016.42 1016.86 1017.22 1017.83 1017.90
1015.87 1015.60 1014.71 1013.39 1011.42 1010.41 1009.52 1009.42 1009.28 1008.75 1005.67 1003.85 1002.82 1002.45 1002.19 1002.60 1002.90 1003.46 1004.02 1004.66 1005.44 1006.41 1006.83 1007.55 1008.09 1008.19 1008.94 1009.43 1010.17 1010.71 1011.22 1011.23 1011.58 1012.30 1013.00 1013.13 1013.48 1014.07 1014.45 1014.77 1015.09 1015.42 1016.23 1017.08 1017.54 1017.97 1018.32 1018.57 1018.97
Wind_Speed
11 10 2 4 1 2 7 8 3 12 5 5 5 4 6 2 6 6 5 9 16 19 16 16 20 20 19 20 20 19 18 20 21 20 19 20 19 17 16 16 15 15 15 15 15 14 14 12 11
6 5 4 1 3 9 9 6 11 15 10 9 5 2 3 3 2 9 12 10 21 19 16 16 19 20 20 20 19 19 19 18 19 19 19 20 19 18 16 16 15 15 14 15 15 14 13 11 10
6 3 2 4 5 20 8 9 14 17 7 7 6 3 6 6 4 13 7 18 20 18 17 16 20 20 19 20 19 19 18 18 17 17 18 18 19 18 16 16 15 14 15 15 14 14 13 11 10
3 4 3 8 22 10 15 4 10 13 4 6 6 5 2 4 11 9 20 21 20 18 17 18 21 23 21 21 21 19 18 19 18 19 18 18 19 19 17 16 14 14 14 14 14 13 11 10 10
3 1 5 12 24 10 5 12 14 15 6 8 7 5 2 7 4 20 20 20 20 17 15 17 22 23 22 22 21 20 19 20 19 19 19 18 18 19 17 16 15 14 14 14 14 13 10 10 9
2 2 9 19 21 8 9 12 12 7 8 14 9 1 3 5 8 17 20 19 19 18 15 15 18 21 22 22 21 20 19 20 19 18 18 18 16 17 17 16 15 14 13 13 13 12 10 9 9
3 1 11 11 5 4 5 6 6 7 9 13 8 18 1 5 6 13 15 17 17 16 16 14 14 16 18 19 18 17 18 19 19 17 17 16 15 16 16 14 14 14 13 13 13 12 10 10 9
1 2 5 5 10 13 9 3 2 4 6 11 2 7 5 7 4 10 11 14 16 15 14 14 13 13 14 13 15 15 18 16 14 15 14 13 14 12 11 10 11 13 12 11 12 11 9 11 9
2 3 5 6 2 6 8 8 3 4 3 5 5 5 13 14 10 8 7 11 13 14 16 15 13 12 12 11 11 14 17 16 13 14 12 12 6 8 8 6 9 11 10 10 11 9 8 10 9
3 4 5 6 5 4 8 7 8 6 8 5 6 13 17 11 20 16 15 17 19 19 18 16 15 12 11 10 9 7 9 10 10 11 10 9 6 5 7 6 8 8 8 8 9 8 9 6 4
4 5 6 10 11 8 5 9 3 6 4 3 6 12 11 10 11 15 16 18 22 18 14 17 16 14 12 10 7 5 4 5 6 10 9 8 5 4 3 3 3 4 5 3 4 4 4 6 4
6 8 8 6 7 9 10 5 9 10 11 6 7 9 6 9 10 11 15 12 14 16 17 18 18 15 13 8 8 7 6 6 6 7 9 6 5 5 4 3 4 4 3 4 4 3 2 4 5
7 10 8 10 14 13 11 9 12 19 8 8 5 7 11 9 11 12 10 11 12 16 16 18 17 17 13 12 9 7 8 7 8 8 9 7 6 7 6 5 4 4 4 4 4 4 3 5 5
4 10 15 14 14 10 13 14 6 12 6 8 10 11 12 12 9 12 8 10 15 13 17 18 18 17 15 12 12 9 8 8 7 8 8 8 7 7 7 6 5 5 5 4 4 5 4 4 4
5 13 17 19 11 8 6 12 18 7 14 13 9 12 12 15 7 12 13 14 16 13 14 19 18 19 18 16 13 10 9 8 8 8 10 10 8 9 9 7 6 6 5 6 5 4 4 4 4
7 5 7 14 3 7 7 17 8 10 14 19 14 9 11 15 11 8 10 13 9 11 11 15 15 17 19 16 13 10 9 9 8 8 8 13 11 10 7 6 6 7 7 7 6 5 4 4 4
7 8 10 17 5 9 7 10 7 10 15 18 16 10 11 14 9 9 12 12 12 12 12 13 16 18 17 15 11 12 13 10 9 8 8 12 10 9 8 6 7 9 7 6 7 5 6 4 3
6 7 9 12 1 9 18 17 11 9 9 14 10 8 9 11 13 9 9 11 8 12 14 13 12 15 16 12 10 8 9 9 9 8 8 11 9 10 8 5 7 8 7 6 7 8 2 3 5
15 19 21 19 16 12 18 18 17 12 10 13 13 6 7 8 9 10 10 11 9 5 14 13 13 14 12 11 10 9 10 9 7 7 10 10 8 9 8 6 7 9 8 9 9 5 6 2 3
17 18 19 14 14 11 15 17 16 14 13 13 17 14 8 7 6 10 7 10 12 10 12 14 13 14 11 10 9 7 8 6 8 6 7 9 9 8 8 9 8 9 6 6 8 7 4 3 6
13 17 20 19 14 9 8 23 18 20 16 15 17 16 8 10 10 8 11 11 13 13 12 14 13 14 13 11 8 4 4 3 4 6 6 5 9 9 9 8 8 8 7 8 9 9 11 5 8
14 11 14 17 14 10 8 11 15 9 15 17 17 17 11 10 8 8 9 10 10 13 8 9 12 11 11 13 11 12 11 8 7 8 4 5 8 9 8 9 9 10 6 8 9 9 9 7 9
10 11 12 13 13 11 14 10 12 9 14 18 19 20 15 9 9 9 7 7 12 12 12 9 12 15 12 12 11 10 10 8 3 3 6 6 5 7 8 8 7 9 7 8 9 8 8 7 5
15 13 16 14 7 8 12 11 13 12 21 11 16 18 16 9 9 9 9 9 13 14 13 13 16 15 15 13 15 14 13 11 6 7 8 7 4 4 5 5 6 7 9 8 8 8 9 9 3
1 5 5 5 1 7 3 10 15 11 10 18 18 18 17 10 10 10 12 8 6 13 18 16 12 13 14 15 13 13 12 11 13 11 9 8 5 3 7 8 7 6 7 8 7 7 8 8 9
8 3 3 5 4 3 4 7 5 5 11 15 16 17 12 9 9 11 11 7 7 11 13 16 17 16 16 17 15 11 11 8 8 10 9 8 9 8 7 8 7 7 6 6 6 5 5 5 5
6 10 16 8 4 4 4 5 7 15 19 18 11 11 9 8 8 10 8 9 8 7 12 16 15 14 14 15 12 11 11 11 11 11 10 9 10 7 7 9 8 6 6 5 5 3 3 2 3
5 10 8 4 4 4 2 4 9 26 28 17 7 9 8 8 9 9 8 8 7 7 8 10 12 12 12 12 9 8 10 10 7 6 9 10 6 6 6 6 6 4 4 2 3 4 4 6 5
9 9 5 6 6 3 4 1 15 25 25 10 11 6 1 5 7 8 7 8 11 12 11 9 11 12 10 9 9 9 10 10 12 12 12 12 12 9 9 9 9 10 10 10 9 8 7 8 6
8 15 6 4 5 4 3 3 21 28 21 13 13 13 16 17 16 17 16 17 18 16 17 14 13 15 14 14 15 14 14 14 15 15 14 14 15 15 13 12 13 13 14 11 10 9 8 8 7
Wind_Direction
326 319 307 14 53 238 225 226 263 285 294 222 248 209 190 166 163 204 137 159 134 152 157 156 154 153 153 147 141 147 153 145 138 138 132 131 131 133 133 129 127 124 124 123 118 115 114 115 115
316 309 29 95 202 227 232 219 231 239 227 323 306 254 166 173 119 112 132 165 147 151 156 158 155 155 146 145 146 152 151 147 145 143 144 139 134 136 141 139 133 130 131 125 120 117 119 120 110
304 199 106 182 213 230 231 198 226 252 258 248 260 220 170 185 154 160 167 155 149 151 156 158 155 153 155 147 151 156 153 151 145 146 149 145 140 143 143 140 138 136 136 129 124 122 124 121 110
358 13 305 236 235 251 228 228 227 265 296 240 241 242 283 271 159 168 144 150 150 152 156 159 159 156 155 154 155 158 161 153 150 154 154 151 147 149 141 144 142 141 140 134 129 129 130 121 111
48 63 246 237 242 238 232 240 254 271 301 276 278 241 246 320 131 140 147 150 151 153 156 159 160 154 154 156 158 161 165 163 158 157 153 152 153 151 151 149 148 146 144 140 136 136 134 123 112
342 141 231 240 243 231 239 267 269 275 278 286 298 265 220 317 145 157 152 152 153 151 156 159 154 155 156 160 162 167 164 159 159 154 150 154 158 151 152 153 153 148 149 147 144 142 139 130 117
166 186 236 263 281 296 222 245 254 275 260 272 311 278 225 295 145 157 153 147 150 150 155 158 157 155 157 163 163 164 158 171 159 159 154 157 158 160 155 155 155 154 157 154 152 149 145 130 117
152 186 278 234 250 261 270 293 316 71 274 326 260 224 208 218 153 143 151 153 146 152 155 159 158 159 159 163 155 153 167 156 157 150 152 150 165 150 146 152 161 161 159 163 151 148 145 121 123
128 277 270 261 245 291 325 0 348 310 252 328 297 3 323 153 124 139 143 164 152 159 162 163 161 162 159 158 161 155 166 168 152 144 151 159 152 136 141 163 172 161 160 156 149 148 131 118 130
182 220 252 224 331 305 297 314 316 331 321 295 309 349 1 341 161 163 178 174 172 166 165 165 162 162 159 158 158 155 159 167 168 163 159 169 134 141 153 167 168 160 167 171 159 145 123 114 131
296 251 309 308 300 293 287 299 249 294 288 119 338 322 337 317 297 175 184 186 180 170 161 165 160 159 165 161 158 160 153 152 159 164 160 168 147 158 156 159 163 158 170 146 138 131 130 130 146
328 273 276 284 326 322 312 278 283 238 261 255 295 294 294 324 275 251 179 194 176 173 173 162 161 161 166 159 166 162 162 156 156 164 156 153 151 156 166 171 174 172 167 159 154 163 187 144 147
254 271 297 306 299 291 286 280 274 279 288 270 286 291 296 279 300 240 250 198 172 174 171 168 165 166 164 163 167 164 168 168 163 162 173 161 163 172 172 179 177 176 165 167 168 151 147 122 127
286 308 296 295 283 279 269 268 267 272 298 277 280 279 272 271 270 264 215 216 184 183 172 170 169 167 163 168 169 171 169 168 166 172 175 170 168 176 184 176 182 181 178 163 168 146 145 120 124
277 305 296 278 276 251 286 277 257 295 293 278 256 280 285 274 247 233 216 208 188 191 178 174 172 166 169 172 170 172 175 172 175 181 177 182 183 184 180 179 182 184 170 153 138 111 108 107 94
272 242 279 273 239 245 173 262 274 279 273 279 272 252 264 269 255 250 217 220 195 184 179 176 171 175 171 175 172 174 177 175 182 187 186 187 192 186 186 174 180 171 160 153 148 133 112 122 128
216 267 242 284 207 264 202 277 280 259 253 262 268 264 256 266 215 255 217 208 197 184 175 174 174 172 171 171 173 176 177 182 182 184 188 187 183 183 170 174 178 159 151 158 150 149 142 149 138
239 238 246 256 211 309 292 282 273 276 264 262 271 261 261 253 254 249 221 202 203 189 188 171 163 163 165 164 170 174 179 183 182 186 189 188 183 182 165 164 176 158 158 164 150 152 108 142 148
263 265 270 268 277 276 264 271 274 261 261 276 276 249 266 280 250 201 232 198 203 227 192 179 162 166 162 170 169 173 180 182 181 181 183 190 187 177 171 169 179 165 176 176 156 135 150 95 134
282 293 283 274 271 247 275 275 274 266 253 245 265 268 228 260 299 276 232 200 195 207 210 189 178 167 172 174 175 179 176 185 171 174 186 191 173 168 175 176 180 179 155 160 162 144 132 126 189
265 267 272 269 286 273 278 273 275 263 248 244 253 254 213 214 236 235 232 204 189 191 217 191 184 175 177 176 166 150 144 119 151 192 186 182 176 178 181 174 175 175 176 173 175 169 164 162 202
284 279 277 270 266 264 192 283 265 254 239 239 246 254 238 210 229 224 233 209 189 183 173 198 188 182 181 175 175 182 177 174 195 191 170 177 188 188 189 181 182 174 173 176 183 183 184 161 185
254 307 291 279 259 270 236 252 257 221 236 233 228 240 248 210 218 224 228 207 201 191 179 208 214 187 178 183 176 187 184 186 140 130 164 188 180 181 182 176 180 173 186 193 182 180 190 196 168
270 281 270 255 236 243 226 207 271 221 228 244 234 239 236 188 208 212 222 208 202 181 175 203 212 190 177 177 173 191 194 182 168 174 186 189 193 185 181 177 181 196 181 188 192 191 201 204 192
109 286 309 354 349 231 272 202 253 293 263 233 231 228 226 200 202 204 214 204 194 180 179 183 199 182 182 184 190 193 193 187 188 183 185 180 178 195 201 190 191 199 195 193 182 185 200 197 208
312 286 267 277 227 245 173 241 250 28 335 290 244 228 220 202 198 207 208 180 184 184 175 177 184 187 181 184 194 195 196 196 194 195 193 200 199 205 195 206 202 204 197 193 192 192 201 176 198
340 355 291 257 212 256 218 280 292 355 310 298 258 212 206 187 183 200 196 169 169 182 175 171 185 189 181 187 184 182 185 196 202 200 205 211 211 202 185 196 196 183 174 185 186 204 228 145 88
319 347 325 339 287 268 277 284 349 334 329 335 173 170 195 193 185 195 183 156 153 183 184 180 189 178 173 180 182 190 195 189 206 205 213 214 197 155 159 163 167 162 100 39 71 60 41 77 60
346 345 337 279 258 283 317 77 354 339 326 5 52 89 49 215 178 171 131 89 71 60 51 52 58 56 43 35 30 40 35 44 45 40 31 25 29 40 55 75 68 60 63 53 55 55 59 60 60
14 348 326 263 340 327 285 50 358 345 329 40 59 76 71 84 73 74 71 70 64 62 56 52 51 62 60 64 60 56 55 57 65 66 60 66 64 54 55 60 67 72 62 54 55 51 45 49 44